TimeMST,TemperatureF,Dew PointF,Humidity,Sea Level PressureIn,VisibilityMPH,Wind Direction,Wind SpeedMPH,Gust SpeedMPH,PrecipitationIn,Events,Conditions,WindDirDegrees,DateUTC
12:15 AM,-0.4,-5.8,78,30.47,10.0,Calm,Calm,-,N/A,,Clear,0,2013-01-22 07:15:00
12:35 AM,-2.2,-5.8,85,30.46,10.0,Calm,Calm,-,N/A,,Clear,0,2013-01-22 07:35:00
12:55 AM,-2.2,-5.8,85,30.46,10.0,Calm,Calm,-,N/A,,Clear,0,2013-01-22 07:55:00
1:15 AM,-2.2,-4.0,92,30.47,10.0,East,4.6,-,N/A,,Clear,80,2013-01-22 08:15:00
1:35 AM,-2.2,-9.4,71,30.47,10.0,NE,3.5,-,N/A,,Clear,50,2013-01-22 08:35:00
1:55 AM,-2.2,-5.8,85,30.47,10.0,NE,4.6,-,N/A,,Clear,40,2013-01-22 08:55:00
2:15 AM,-2.2,-5.8,85,30.47,10.0,NE,5.8,-,N/A,,Clear,40,2013-01-22 09:15:00
2:35 AM,-4.0,-9.4,78,30.47,10.0,ENE,5.8,-,N/A,,Clear,60,2013-01-22 09:35:00
2:55 AM,-2.2,-5.8,85,30.48,10.0,Calm,Calm,-,N/A,,Partly Cloudy,0,2013-01-22 09:55:00
3:15 AM,-2.2,-9.4,71,30.48,10.0,SSW,3.5,-,N/A,,Partly Cloudy,200,2013-01-22 10:15:00
3:35 AM,-5.8,-7.6,92,30.47,10.0,Calm,Calm,-,N/A,,Clear,0,2013-01-22 10:35:00
3:55 AM,-5.8,-7.6,92,30.47,10.0,Calm,Calm,-,N/A,,Clear,0,2013-01-22 10:55:00
4:35 AM,-5.8,-5.8,100,30.46,10.0,Calm,Calm,-,N/A,,Clear,0,2013-01-22 11:35:00
4:55 AM,-5.8,-9.4,84,30.46,10.0,Calm,Calm,-,N/A,,Clear,0,2013-01-22 11:55:00
5:15 AM,-5.8,-7.6,92,30.46,10.0,Calm,Calm,-,N/A,,Mostly Cloudy,0,2013-01-22 12:15:00
5:35 AM,-5.8,-7.6,92,30.45,4.0,Calm,Calm,-,N/A,,Overcast,0,2013-01-22 12:35:00
5:55 AM,-5.8,-11.2,77,30.45,10.0,Calm,Calm,-,N/A,,Overcast,0,2013-01-22 12:55:00
6:15 AM,-5.8,-9.4,84,30.45,10.0,Calm,Calm,-,N/A,,Overcast,0,2013-01-22 13:15:00
6:35 AM,-5.8,-9.4,84,30.44,10.0,Calm,Calm,-,N/A,,Overcast,0,2013-01-22 13:35:00
6:55 AM,-5.8,-7.6,92,30.45,1.5,Calm,Calm,-,N/A,,Overcast,0,2013-01-22 13:55:00
7:15 AM,-5.8,-7.6,92,30.45,1.0,Calm,Calm,-,N/A,,Overcast,0,2013-01-22 14:15:00
7:35 AM,-5.8,-7.6,92,30.46,2.5,Calm,Calm,-,N/A,,Overcast,0,2013-01-22 14:35:00
7:55 AM,-4.0,-5.8,92,30.46,0.8,Calm,Calm,-,N/A,,Overcast,0,2013-01-22 14:55:00
8:15 AM,-4.0,-7.6,85,30.47,2.0,Calm,Calm,-,N/A,,Overcast,0,2013-01-22 15:15:00
8:35 AM,-4.0,-5.8,92,30.48,0.8,West,3.5,-,N/A,,Overcast,280,2013-01-22 15:35:00
8:55 AM,-2.2,-2.2,100,30.47,0.8,Calm,Calm,-,N/A,,Overcast,0,2013-01-22 15:55:00
9:15 AM,-2.2,-7.6,78,30.47,4.0,Calm,Calm,-,N/A,,Overcast,0,2013-01-22 16:15:00
9:35 AM,-2.2,-4.0,92,30.46,5.0,West,4.6,-,N/A,,Overcast,270,2013-01-22 16:35:00
9:55 AM,-2.2,-5.8,85,30.47,5.0,West,3.5,-,N/A,,Overcast,260,2013-01-22 16:55:00
10:15 AM,-0.4,-4.0,85,30.47,2.5,Calm,Calm,-,N/A,,Overcast,0,2013-01-22 17:15:00
10:35 AM,-0.4,-0.4,100,30.47,3.0,Calm,Calm,-,N/A,,Overcast,0,2013-01-22 17:35:00
10:55 AM,1.4,-2.2,85,30.48,3.0,Calm,Calm,-,N/A,,Overcast,0,2013-01-22 17:55:00
11:15 AM,1.4,1.4,100,30.47,10.0,Calm,Calm,-,N/A,,Mostly Cloudy,0,2013-01-22 18:15:00
11:35 AM,1.4,-0.4,92,30.48,10.0,Calm,Calm,-,N/A,,Scattered Clouds,0,2013-01-22 18:35:00
11:55 AM,3.2,1.4,92,30.48,10.0,Calm,Calm,-,N/A,,Partly Cloudy,0,2013-01-22 18:55:00
12:15 PM,5.0,3.2,92,30.47,8.0,Calm,Calm,-,N/A,,Clear,0,2013-01-22 19:15:00
12:55 PM,6.8,1.4,79,30.45,10.0,Calm,Calm,-,N/A,,Clear,0,2013-01-22 19:55:00
1:15 PM,6.8,1.4,79,30.43,10.0,Calm,Calm,-,N/A,,Clear,0,2013-01-22 20:15:00
1:35 PM,6.8,6.8,100,30.42,10.0,Calm,Calm,-,N/A,,Clear,0,2013-01-22 20:35:00
1:55 PM,6.8,5.0,92,30.42,10.0,Calm,Calm,-,N/A,,Clear,0,2013-01-22 20:55:00
2:15 PM,8.6,3.2,79,30.42,10.0,Calm,Calm,-,N/A,,Clear,0,2013-01-22 21:15:00
2:35 PM,8.6,6.8,92,30.41,10.0,Calm,Calm,-,N/A,,Clear,0,2013-01-22 21:35:00
2:55 PM,8.6,5.0,85,30.41,10.0,Calm,Calm,-,N/A,,Clear,0,2013-01-22 21:55:00
3:15 PM,10.4,5.0,79,30.40,10.0,Calm,Calm,-,N/A,,Clear,0,2013-01-22 22:15:00
3:35 PM,10.4,5.0,79,30.40,10.0,Calm,Calm,-,N/A,,Clear,0,2013-01-22 22:35:00
3:55 PM,10.4,5.0,79,30.40,10.0,Calm,Calm,-,N/A,,Clear,0,2013-01-22 22:55:00
4:15 PM,10.4,5.0,79,30.39,10.0,Calm,Calm,-,N/A,,Clear,0,2013-01-22 23:15:00
4:35 PM,8.6,5.0,85,30.39,10.0,Calm,Calm,-,N/A,,Clear,0,2013-01-22 23:35:00
4:55 PM,8.6,5.0,85,30.39,10.0,Calm,Calm,-,N/A,,Clear,0,2013-01-22 23:55:00
5:15 PM,8.6,3.2,79,30.39,10.0,Calm,Calm,-,N/A,,Clear,0,2013-01-23 00:15:00
5:35 PM,8.6,3.2,79,30.38,10.0,Calm,Calm,-,N/A,,Clear,0,2013-01-23 00:35:00
5:55 PM,6.8,1.4,79,30.38,10.0,South,3.5,-,N/A,,Clear,170,2013-01-23 00:55:00
6:35 PM,6.8,1.4,79,30.39,10.0,South,5.8,-,N/A,,Clear,180,2013-01-23 01:35:00
6:55 PM,5.0,1.4,85,30.39,10.0,South,5.8,-,N/A,,Clear,180,2013-01-23 01:55:00
7:15 PM,3.2,-0.4,85,30.39,10.0,South,5.8,-,N/A,,Clear,180,2013-01-23 02:15:00
7:35 PM,3.2,-0.4,85,30.40,10.0,Calm,Calm,-,N/A,,Clear,0,2013-01-23 02:35:00
7:55 PM,3.2,-0.4,85,30.39,10.0,SSW,3.5,-,N/A,,Clear,200,2013-01-23 02:55:00
8:15 PM,1.4,-0.4,92,30.39,10.0,South,3.5,-,N/A,,Clear,180,2013-01-23 03:15:00
8:35 PM,1.4,-2.2,85,30.39,10.0,South,3.5,-,N/A,,Clear,170,2013-01-23 03:35:00
8:55 PM,1.4,-2.2,85,30.38,10.0,South,4.6,-,N/A,,Clear,170,2013-01-23 03:55:00
9:15 PM,1.4,-2.2,85,30.39,10.0,South,5.8,-,N/A,,Clear,170,2013-01-23 04:15:00
9:35 PM,-0.4,-2.2,92,30.40,10.0,SSW,4.6,-,N/A,,Clear,200,2013-01-23 04:35:00
9:55 PM,-0.4,-5.8,78,30.40,10.0,SW,3.5,-,N/A,,Clear,220,2013-01-23 04:55:00
10:15 PM,-0.4,-2.2,92,30.40,10.0,SSW,3.5,-,N/A,,Clear,200,2013-01-23 05:15:00
10:35 PM,-0.4,-5.8,78,30.40,10.0,Calm,Calm,-,N/A,,Clear,0,2013-01-23 05:35:00
10:55 PM,-0.4,-2.2,92,30.40,10.0,South,3.5,-,N/A,,Clear,180,2013-01-23 05:55:00
11:15 PM,-0.4,-2.2,92,30.40,10.0,SSW,3.5,-,N/A,,Partly Cloudy,200,2013-01-23 06:15:00
11:35 PM,-0.4,-2.2,92,30.41,10.0,South,4.6,-,N/A,,Mostly Cloudy,180,2013-01-23 06:35:00